Home > Weather > Opfikon > Past weeks

Flag for Switzerland Weather for the Past 2 Weeks in Opfikon, Zurich, Switzerland

Now
36 °F

Chilly.


Feels Like: 36 °F
Forecast: 29 / 45 °F
Wind: 1 mph from South

Location: Zuerich-Fluntern

Current Time: Feb 6, 2016 at 9:36:03 AM

Latest Report: Feb 6, 2016 at 8:00 AM


Visibility: N/A

Pressure: 30.22 "Hg

Humidity: 93%

Dew point: 35 °F

Location of OpfikonLocation

Historic Weather in Opfikon — Graph

°F

Opfikon Temperature Yesterday

Maximum temperature yesterday: 46 °F (at 3:00 PM)
Minimum temperature yesterday: 39 °F (at 8:00 PM)
Average temperature yesterday: 43 °F

High & Low Weather Summary for the Past Weeks

 TemperatureHumidityPressure
High56 °F (Feb 1, 1:00 PM)100% (Jan 24, 5:00 AM)30.69 "Hg (Jan 24, 5:00 AM)
Low28 °F (Jan 24, 6:00 AM)51% (Jan 25, 2:00 PM)29.99 "Hg (Jan 31, 3:00 PM)
Average42 °F79%30.37 "Hg
* Reported Jan 22 8:00 AM — Feb 6 8:00 AM, Opfikon, Weather by CustomWeather, © 2016

Note: Actual official high and low records may vary slightly from our data, if they occured in-between our weather recording intervals... More about our weather records

Advertising

Opfikon Weather History for the Previous 24 Hours

 ConditionsComfort  
Time TempWeatherWind HumidityBarometerVisibility
8:00 AM
Sat, Feb 6
36 °FChilly.1 mph93%30.22 "HgN/A
7:00 AM36 °FChilly.No wind94%30.22 "HgN/A
6:00 AM36 °FChilly.1 mph92%30.22 "HgN/A
5:00 AM37 °FChilly.1 mph90%30.24 "HgN/A
4:00 AM37 °FChilly.1 mph92%30.24 "HgN/A
3:00 AM35 °FChilly.No wind97%30.27 "HgN/A
9:00 PM
Fri, Feb 5
40 °FQuite cool.1 mph88%30.30 "HgN/A
8:00 PM39 °FChilly.2 mph93%30.32 "HgN/A
7:00 PM40 °FQuite cool.1 mph87%30.32 "HgN/A
6:00 PM43 °FQuite cool.1 mph80%30.32 "HgN/A
5:00 PM45 °FCool.3 mph76%30.32 "HgN/A
4:00 PM46 °FCool.3 mph73%30.33 "HgN/A
3:00 PM46 °FCool.5 mph77%30.34 "HgN/A
2:00 PM46 °FCool.2 mph80%30.37 "HgN/A
1:00 PM44 °FOvercast.3 mph84%30.40 "HgN/A
12:00 PM45 °FQuite cool.2 mph83%30.41 "HgN/A
11:00 AM42 °FQuite cool.2 mph88%30.44 "HgN/A
10:00 AM41 °FQuite cool.2 mph91%30.43 "HgN/A
9:00 AM41 °FQuite cool.3 mph88%30.44 "HgN/A
Weather by CustomWeather, © 2016

See weather overviewHow to use our weather pages